Location: Villingen
(48.0639°N, 8.4609°E)
Time: 21:06:43
(UTC+01:00)

Tiangong 2 - Pass Details

Date: 01 December 2017
Orbit: 386 x 390 km, 42.8° (Epoch: 12 December)

Event Time Altitude Azimuth Distance (km) Brightness Sun altitude
Exits shadow 06:10:27 18° 213° (SSW) 1,052 3.1 -16.8°
Maximum altitude 06:12:03 26° 169° (S) 800 2.9 -16.6°
Drops below altitude 10° 06:14:48 10° 110° (ESE) 1,420 5.3 -16.1°
Sets 06:17:04 0° 97° (E) 2,277 6.8 -15.8°
